Погода в Ромашках

Россия / Волгоградская область     50°11′48″N   46°40′29″E
темп.,
°C
ветер,
м/с
пор.,
м/с
влажн.,
%
обл.,
%
осадки,
мм/ч
давл.,
гПа
погр.,
м
5 марта, пт
пт500:000юз818770 0.0 1008493
03:000юз817842 0.0 1007513
06:00+1юз9178392 0.0 1007561
09:00+2зюз8159397 0.0 1007655
12:00+2зюз81399100 0.0 1008512
15:00+2зюз51197100 0.1 1010346
18:00+1зсз4898100 0.2 1012268
21:00−2сз3393100 0.2 101453
6 марта, сб
сб600:00−3ссз3388100 0.0 101449
03:00−4с2389100 0.0 101684
06:00−4св3487100 0.0 1015126
09:00−4всв3485100 0.0 1015200
12:00−3всв4593100 0.4 1014354
15:00−3св6895100 2.2 1012515
18:00−4св61095100 1.1 1011578
21:00−5ссв71195100 2.7 1010598
7 марта, вс
вс700:00−6с61093100 0.5 1012450
03:00−7ссз489199 0.5 1015218
06:00−10сз339249 0.0 101744
09:00−7з358940 0.0 1018234
12:00−4зюз58869 0.0 1018635
15:00−3зюз688053 0.1 1017911
18:00−6юз5128580 0.0 1015324
21:00−5ююз8158190 0.0 1013483
8 марта, пн
пн800:00−3юз101779100 0.0 1010778
03:00−3зюз91779100 0.0 1010775
06:00−4зюз7158799 0.0 1010464
09:00−2юз8138898 0.0 1009586
12:00−1юз9139492 0.1 1008917
15:000юз9158896 0.4 10071073
18:000юз8168498 0.0 1006778
21:00−3сз9158096 0.8 1009922
9 марта, вт
вт900:00−9зсз498264 0.0 1012212
03:00−10з348633 0.0 101460
06:00−11зюз348749 0.0 101547
09:00−8зюз238351 0.0 1015156
12:00−6в1169100 0.0 1014268
15:00−6вюв3392100 0.3 1013306
18:00−7св4695100 1.9 1011322
21:00−7ссв6995100 3.9 1011483